THY53R GCXO-LPMA

Flight info

Callsign THY53R
Flight time 0h 53m
Altitude 34000
Route BIMBO1X BIMBO DCT EKNOT EKNOT1P
Aircraft B738/M-SDE2E3FGHIRWXY/LB1

Departure

Time 2026-05-04 10:06
Airport Tenerife Norte-Ciudad de La Laguna Airport (GCXO)

Arrival

Time 2026-05-04 10:59
Airport Cristiano Ronaldo International Airport (LPMA)
Time Latitude Longitude Altitude Speed Heading
2026-05-04 09:55 28.48674 -16.34661 2069 ft 0 kts 21°
2026-05-04 10:00 28.48655 -16.34668 2069 ft 2 kts 18°
2026-05-04 10:00 28.48640 -16.34674 2069 ft 2 kts 16°
2026-05-04 10:02 28.48548 -16.34653 2068 ft 0 kts 292°
2026-05-04 10:04 28.48708 -16.35134 2070 ft 19 kts 290°
2026-05-04 10:04 28.48753 -16.35271 2070 ft 18 kts 290°
2026-05-04 10:04 28.48797 -16.35403 2070 ft 18 kts 290°
2026-05-04 10:04 28.48841 -16.35531 2069 ft 17 kts 291°
2026-05-04 10:05 28.48873 -16.35657 2068 ft 16 kts 271°
2026-05-04 10:05 28.48820 -16.35749 2067 ft 13 kts 182°
2026-05-04 10:05 28.48785 -16.35706 2067 ft 2 kts 111°
2026-05-04 10:05 28.48768 -16.35655 2068 ft 28 kts 111°
2026-05-04 10:06 28.48591 -16.35125 2070 ft 113 kts 110°
2026-05-04 10:06 28.48227 -16.34027 2169 ft 174 kts 111°
2026-05-04 10:06 28.47804 -16.32767 3334 ft 164 kts 109°
2026-05-04 10:08 28.45396 -16.20958 6998 ft 287 kts 56°
2026-05-04 10:08 28.48711 -16.18644 8657 ft 288 kts
2026-05-04 10:08 28.52763 -16.18355 10322 ft 296 kts 358°
2026-05-04 10:08 28.57136 -16.18221 11118 ft 335 kts 358°
2026-05-04 10:09 28.61915 -16.18037 12458 ft 350 kts 358°
2026-05-04 10:09 28.66849 -16.17806 13990 ft 359 kts 358°
2026-05-04 10:09 28.71899 -16.17553 15340 ft 367 kts 358°
2026-05-04 10:09 28.77061 -16.17290 16726 ft 375 kts 358°
2026-05-04 10:10 28.82327 -16.17019 18050 ft 383 kts 358°
2026-05-04 10:10 28.87707 -16.16742 19217 ft 391 kts 358°
2026-05-04 10:10 28.93197 -16.16460 20348 ft 398 kts 357°
2026-05-04 10:10 28.98794 -16.16171 21446 ft 406 kts 357°
2026-05-04 10:11 29.04495 -16.15878 22501 ft 414 kts 356°
2026-05-04 10:11 29.10239 -16.15581 23544 ft 421 kts 356°
2026-05-04 10:11 29.16147 -16.15275 24424 ft 427 kts 356°
2026-05-04 10:11 29.22121 -16.14964 25302 ft 432 kts 356°
2026-05-04 10:12 29.28175 -16.14650 26149 ft 438 kts 356°
2026-05-04 10:12 29.34303 -16.14332 26954 ft 443 kts 356°
2026-05-04 10:12 29.40498 -16.14010 27724 ft 449 kts 356°
2026-05-04 10:12 29.46781 -16.13683 28485 ft 454 kts 356°
2026-05-04 10:13 29.53120 -16.13352 29212 ft 459 kts 356°
2026-05-04 10:13 29.59529 -16.13017 29974 ft 462 kts 356°
2026-05-04 10:13 29.65926 -16.12678 30888 ft 458 kts 356°
2026-05-04 10:13 29.72317 -16.12344 31516 ft 461 kts 355°
2026-05-04 10:14 29.78644 -16.12013 32261 ft 460 kts 355°
2026-05-04 10:14 29.85039 -16.11677 32940 ft 461 kts 355°
2026-05-04 10:16 30.30011 -16.09296 34140 ft 448 kts 354°
2026-05-04 10:16 30.36257 -16.08974 34152 ft 451 kts 354°
2026-05-04 10:16 30.48953 -16.08308 34148 ft 461 kts 355°
2026-05-04 10:17 30.61778 -16.07617 34114 ft 457 kts 355°
2026-05-04 10:19 31.05120 -16.05292 32158 ft 434 kts 356°
2026-05-04 10:19 31.11093 -16.04971 31353 ft 427 kts 357°
2026-05-04 10:19 31.16980 -16.04654 30583 ft 420 kts 357°
2026-05-04 10:19 31.22780 -16.04342 29760 ft 414 kts 357°
2026-05-04 10:20 31.28486 -16.04034 28871 ft 407 kts 357°
2026-05-04 10:20 31.34115 -16.03731 28056 ft 400 kts 357°
2026-05-04 10:20 31.39626 -16.03433 27284 ft 393 kts 357°
2026-05-04 10:20 31.44904 -16.04155 26482 ft 375 kts 338°
2026-05-04 10:21 31.49865 -16.05900 25735 ft 369 kts 338°
2026-05-04 10:21 31.54751 -16.07640 24995 ft 365 kts 338°
2026-05-04 10:21 31.59534 -16.09320 24260 ft 362 kts 338°
2026-05-04 10:21 31.64405 -16.11017 23467 ft 359 kts 338°
2026-05-04 10:22 31.73874 -16.14308 21844 ft 351 kts 338°
2026-05-04 10:22 31.78524 -16.15926 21109 ft 346 kts 338°
2026-05-04 10:22 31.83053 -16.17504 20393 ft 341 kts 338°
2026-05-04 10:23 31.87581 -16.19084 19704 ft 337 kts 338°
2026-05-04 10:23 31.92065 -16.20650 18998 ft 334 kts 338°
2026-05-04 10:25 32.12797 -16.27911 15566 ft 316 kts 339°
2026-05-04 10:25 32.14924 -16.28658 15223 ft 314 kts 339°
2026-05-04 10:25 32.17009 -16.29390 14893 ft 312 kts 339°
2026-05-04 10:25 32.19066 -16.30099 14564 ft 311 kts 339°
2026-05-04 10:26 32.21140 -16.30792 14235 ft 309 kts 340°
2026-05-04 10:26 32.23208 -16.31477 13900 ft 308 kts 340°
2026-05-04 10:26 32.25263 -16.32157 13530 ft 306 kts 340°
2026-05-04 10:26 32.27310 -16.32836 13179 ft 305 kts 340°
2026-05-04 10:27 32.29342 -16.33511 12829 ft 303 kts 340°
2026-05-04 10:27 32.31361 -16.34183 12493 ft 301 kts 340°
2026-05-04 10:27 32.33368 -16.34852 12161 ft 299 kts 341°
2026-05-04 10:27 32.35364 -16.35518 11835 ft 297 kts 341°
2026-05-04 10:28 32.37347 -16.36180 11510 ft 295 kts 341°
2026-05-04 10:28 32.39316 -16.36838 11182 ft 294 kts 341°
2026-05-04 10:28 32.40882 -16.37362 10924 ft 292 kts 341°
2026-05-04 10:28 32.42840 -16.38017 10599 ft 291 kts 341°
2026-05-04 10:29 32.44779 -16.38666 10387 ft 286 kts 341°
2026-05-04 10:29 32.46670 -16.39298 10246 ft 278 kts 341°
2026-05-04 10:29 32.48587 -16.39939 10080 ft 272 kts 341°
2026-05-04 10:29 32.52220 -16.41157 9457 ft 270 kts 342°
2026-05-04 10:30 32.55820 -16.42366 8878 ft 267 kts 342°
2026-05-04 10:30 32.59375 -16.43560 8314 ft 264 kts 342°
2026-05-04 10:30 32.62894 -16.44742 7756 ft 262 kts 342°
2026-05-04 10:30 32.66337 -16.45901 7227 ft 259 kts 342°
2026-05-04 10:31 32.69800 -16.47067 6683 ft 257 kts 342°
2026-05-04 10:31 32.73220 -16.48218 6145 ft 255 kts 342°
2026-05-04 10:32 32.81643 -16.53866 5278 ft 217 kts 309°
2026-05-04 10:33 32.82614 -16.55230 5051 ft 215 kts 309°
2026-05-04 10:33 32.83584 -16.56580 4838 ft 215 kts 309°
2026-05-04 10:33 32.84573 -16.57952 4608 ft 221 kts 309°
2026-05-04 10:33 32.85295 -16.59520 4353 ft 214 kts 280°
2026-05-04 10:34 32.85380 -16.61223 4147 ft 201 kts 268°
2026-05-04 10:34 32.85319 -16.62839 3920 ft 191 kts 266°
2026-05-04 10:34 32.85066 -16.64331 3663 ft 181 kts 238°
2026-05-04 10:34 32.84109 -16.65163 3513 ft 169 kts 203°
2026-05-04 10:35 32.83012 -16.65751 3258 ft 174 kts 206°
2026-05-04 10:35 32.81911 -16.66361 2810 ft 175 kts 205°
2026-05-04 10:35 32.80814 -16.66991 2402 ft 172 kts 206°
2026-05-04 10:35 32.79796 -16.67580 2217 ft 158 kts 206°
2026-05-04 10:36 32.78828 -16.68141 2081 ft 150 kts 206°
2026-05-04 10:36 32.77920 -16.68665 1988 ft 147 kts 206°
2026-05-04 10:36 32.77001 -16.69211 1841 ft 149 kts 208°
2026-05-04 10:36 32.76185 -16.69945 1698 ft 147 kts 223°
2026-05-04 10:37 32.75475 -16.70808 1565 ft 147 kts 224°
2026-05-04 10:37 32.74747 -16.71657 1455 ft 146 kts 223°
2026-05-04 10:37 32.74021 -16.72498 1416 ft 146 kts 224°
2026-05-04 10:37 32.73296 -16.73384 1192 ft 151 kts 224°
2026-05-04 10:39 32.66903 -16.74899 2490 ft 209 kts 162°
2026-05-04 10:39 32.65752 -16.73883 2522 ft 214 kts 132°
2026-05-04 10:39 32.64782 -16.72488 2478 ft 221 kts 131°
2026-05-04 10:40 32.63806 -16.71077 2481 ft 220 kts 131°
2026-05-04 10:40 32.62836 -16.69672 2497 ft 220 kts 131°
2026-05-04 10:40 32.62021 -16.68139 2490 ft 224 kts 105°
2026-05-04 10:40 32.61988 -16.66917 2502 ft 227 kts 77°
2026-05-04 10:41 32.62813 -16.65350 2494 ft 228 kts 36°
2026-05-04 10:41 32.64538 -16.63934 2495 ft 228 kts 36°
2026-05-04 10:41 32.65795 -16.62789 2506 ft 228 kts 38°
2026-05-04 10:41 32.67027 -16.61606 2504 ft 228 kts 39°
2026-05-04 10:42 32.67858 -16.60797 2502 ft 229 kts 39°
2026-05-04 10:42 32.69090 -16.59587 2499 ft 230 kts 39°
2026-05-04 10:42 32.70317 -16.58378 2499 ft 229 kts 39°
2026-05-04 10:42 32.71522 -16.57189 2491 ft 227 kts 39°
2026-05-04 10:43 32.72733 -16.55997 2495 ft 225 kts 39°
2026-05-04 10:44 32.81185 -16.47790 2514 ft 228 kts 39°
2026-05-04 10:45 32.82421 -16.46602 2513 ft 229 kts 35°
2026-05-04 10:45 32.83916 -16.46086 2505 ft 226 kts 352°
2026-05-04 10:45 32.85281 -16.46825 2502 ft 219 kts 311°
2026-05-04 10:45 32.86076 -16.48336 2512 ft 217 kts 287°
2026-05-04 10:46 32.86297 -16.50100 2508 ft 218 kts 265°
2026-05-04 10:46 32.86155 -16.51893 2530 ft 216 kts 261°
2026-05-04 10:46 32.85968 -16.53656 2522 ft 211 kts 262°
2026-05-04 10:46 32.85795 -16.55342 2404 ft 198 kts 261°
2026-05-04 10:47 32.85642 -16.56885 2347 ft 182 kts 262°
2026-05-04 10:47 32.85500 -16.58358 2305 ft 175 kts 261°
2026-05-04 10:47 32.85373 -16.59775 2277 ft 175 kts 263°
2026-05-04 10:47 32.85312 -16.61221 2267 ft 176 kts 265°
2026-05-04 10:49 32.88926 -16.64216 2288 ft 184 kts 90°
2026-05-04 10:49 32.88994 -16.62685 2275 ft 186 kts 89°
2026-05-04 10:50 32.89063 -16.61143 2285 ft 187 kts 89°
2026-05-04 10:51 32.85443 -16.59791 2277 ft 177 kts 264°
2026-05-04 10:52 32.85368 -16.61261 2288 ft 179 kts 263°
2026-05-04 10:52 32.85295 -16.62748 2276 ft 180 kts 264°
2026-05-04 10:52 32.85225 -16.64223 2279 ft 178 kts 264°
2026-05-04 10:54 32.88342 -16.61280 2277 ft 175 kts 149°
2026-05-04 10:54 32.87194 -16.60936 2189 ft 174 kts 184°
2026-05-04 10:56 32.77919 -16.68229 1254 ft 152 kts 220°
2026-05-04 10:56 32.77158 -16.69011 1292 ft 143 kts 221°
2026-05-04 10:56 32.76423 -16.69761 1317 ft 139 kts 221°
2026-05-04 10:57 32.75732 -16.70562 1399 ft 139 kts 226°
2026-05-04 10:57 32.75060 -16.71381 1440 ft 143 kts 223°
2026-05-04 10:57 32.74350 -16.72180 1409 ft 140 kts 223°
2026-05-04 10:57 32.73628 -16.72998 1291 ft 144 kts 224°
2026-05-04 10:58 32.72897 -16.73817 1055 ft 147 kts 222°
2026-05-04 10:58 32.72158 -16.74681 714 ft 148 kts 223°
2026-05-04 10:58 32.71433 -16.75538 481 ft 148 kts 224°
2026-05-04 10:58 32.70692 -16.76393 280 ft 150 kts 222°
2026-05-04 10:59 32.69990 -16.77208 208 ft 128 kts 224°
2026-05-04 10:59 32.69477 -16.77807 202 ft 63 kts 224°
2026-05-04 10:59 32.69383 -16.77917 190 ft 10 kts 224°
2026-05-04 10:59 32.69315 -16.77961 200 ft 14 kts 173°
2026-05-04 11:00 32.69289 -16.77874 190 ft 13 kts 80°
2026-05-04 11:01 32.69337 -16.77696 190 ft 0 kts 138°